IRM098 OIIE-UUEE

Flight info

Callsign IRM098
Flight time N/A
Altitude 38000
Route PAROT W161 RST G670 LALDA/N0486F410 N60 GASBI/K0896F410 N60 ATR/K0898F400 W324 URL M166 ARISA L736 OLOPI OLOPI3F
Aircraft B772/H-SDE2E3FGHIJ5LORVWXY/LB1D1

Departure

Time 2026-05-01 13:13
Airport Imam Khomeini International Airport (OIIE)

Arrival

Time N/A
Airport Sheremetyevo International Airport (UUEE)
Time Latitude Longitude Altitude Speed Heading
2026-05-01 12:56 35.41128 51.15174 3280 ft 0 kts 199°
2026-05-01 12:57 35.41128 51.15175 3280 ft 0 kts 199°
2026-05-01 13:07 35.41221 51.15153 3274 ft 0 kts 108°
2026-05-01 13:08 35.41207 51.15204 3277 ft 11 kts 109°
2026-05-01 13:08 35.41182 51.15323 3274 ft 17 kts 82°
2026-05-01 13:08 35.41246 51.15377 3275 ft 17 kts 21°
2026-05-01 13:09 35.41318 51.15502 3274 ft 25 kts 103°
2026-05-01 13:09 35.41253 51.15742 3274 ft 34 kts 109°
2026-05-01 13:09 35.41231 51.15820 3275 ft 36 kts 109°
2026-05-01 13:09 35.41174 51.16021 3271 ft 33 kts 109°
2026-05-01 13:10 35.41122 51.16212 3267 ft 25 kts 108°
2026-05-01 13:10 35.41141 51.16361 3264 ft 16 kts 30°
2026-05-01 13:10 35.41281 51.16424 3267 ft 26 kts 16°
2026-05-01 13:10 35.41372 51.16376 3266 ft 14 kts 298°
2026-05-01 13:11 35.41380 51.16354 3267 ft 0 kts 289°
2026-05-01 13:12 35.41453 51.16094 3274 ft 79 kts 288°
2026-05-01 13:13 35.41727 51.15093 3291 ft 166 kts 287°
2026-05-01 13:13 35.42193 51.13515 3643 ft 213 kts 289°
2026-05-01 13:13 35.42666 51.11753 4772 ft 219 kts 289°
2026-05-01 13:13 35.43159 51.09947 6045 ft 223 kts 290°
2026-05-01 13:14 35.43690 51.08174 7242 ft 226 kts 290°
2026-05-01 13:14 35.44087 51.06855 8128 ft 228 kts 290°
2026-05-01 13:14 35.44642 51.05006 9281 ft 234 kts 290°
2026-05-01 13:14 35.45020 51.03745 10062 ft 235 kts 289°
2026-05-01 13:15 35.45587 51.01847 11144 ft 239 kts 289°
2026-05-01 13:15 35.46163 50.99917 12215 ft 242 kts 289°
2026-05-01 13:15 35.46745 50.97960 13313 ft 245 kts 289°
2026-05-01 13:15 35.47329 50.95993 14317 ft 248 kts 289°
2026-05-01 13:16 35.47929 50.93971 15210 ft 256 kts 289°
2026-05-01 13:16 35.48535 50.91926 16292 ft 253 kts 288°
2026-05-01 13:16 35.49141 50.89872 17239 ft 259 kts 288°
2026-05-01 13:17 35.51142 50.83257 19402 ft 295 kts 291°
2026-05-01 13:17 35.51996 50.80931 20273 ft 302 kts 294°
2026-05-01 13:18 35.54057 50.76301 22110 ft 312 kts 300°
2026-05-01 13:18 35.55371 50.74169 22908 ft 319 kts 319°
2026-05-01 13:18 35.57357 50.72876 23623 ft 330 kts 340°
2026-05-01 13:18 35.59614 50.72151 24119 ft 345 kts 345°
2026-05-01 13:19 35.61991 50.71555 24217 ft 364 kts 346°
2026-05-01 13:19 35.64573 50.70913 24340 ft 382 kts 346°
2026-05-01 13:19 35.69946 50.69377 24534 ft 405 kts 343°
2026-05-01 13:20 35.72690 50.68488 24602 ft 412 kts 342°
2026-05-01 13:20 35.75473 50.67538 24747 ft 416 kts 342°
2026-05-01 13:20 35.78260 50.66559 25039 ft 417 kts 341°
2026-05-01 13:21 35.83823 50.64571 25607 ft 417 kts 341°
2026-05-01 13:21 35.86622 50.63568 25847 ft 419 kts 341°
2026-05-01 13:21 35.89417 50.62568 26081 ft 420 kts 341°
2026-05-01 13:21 35.92228 50.61563 26365 ft 420 kts 341°
2026-05-01 13:22 35.95042 50.60559 26553 ft 422 kts 341°
2026-05-01 13:22 35.97868 50.59551 26748 ft 424 kts 341°
2026-05-01 13:22 36.00706 50.58539 26951 ft 425 kts 341°
2026-05-01 13:22 36.03551 50.57525 27166 ft 426 kts 340°
2026-05-01 13:23 36.06401 50.56508 27368 ft 427 kts 340°
2026-05-01 13:23 36.09253 50.55489 27532 ft 427 kts 340°
2026-05-01 13:23 36.12076 50.54479 27719 ft 428 kts 340°
2026-05-01 13:23 36.14938 50.53456 27855 ft 429 kts 340°
2026-05-01 13:24 36.17809 50.52429 28013 ft 430 kts 340°
2026-05-01 13:24 36.20686 50.51398 28167 ft 431 kts 340°
2026-05-01 13:24 36.23579 50.50361 28308 ft 432 kts 340°
2026-05-01 13:25 36.29415 50.48263 28742 ft 434 kts 340°
2026-05-01 13:25 36.32278 50.47238 29020 ft 437 kts 341°
2026-05-01 13:25 36.35254 50.46339 29599 ft 441 kts 345°
2026-05-01 13:25 36.38274 50.45655 30198 ft 444 kts 347°
2026-05-01 13:26 36.41359 50.45111 30612 ft 449 kts 349°
2026-05-01 13:26 36.44478 50.44701 30985 ft 454 kts 350°
2026-05-01 13:26 36.47634 50.44356 31394 ft 457 kts 351°
2026-05-01 13:26 36.50825 50.44010 31815 ft 460 kts 350°
2026-05-01 13:27 36.53981 50.43638 32215 ft 462 kts 349°
2026-05-01 13:27 36.57223 50.43213 32605 ft 465 kts 348°
2026-05-01 13:27 36.63689 50.42266 33274 ft 471 kts 348°
2026-05-01 13:28 36.70226 50.41251 33995 ft 476 kts 347°
2026-05-01 13:28 36.73515 50.40737 34254 ft 479 kts 347°
2026-05-01 13:29 36.80154 50.39708 34909 ft 481 kts 347°
2026-05-01 13:29 36.86789 50.38692 35612 ft 480 kts 347°
2026-05-01 13:30 37.00068 50.36651 37003 ft 480 kts 347°
2026-05-01 13:31 37.06720 50.35623 37553 ft 483 kts 347°
2026-05-01 13:31 37.16751 50.34069 38102 ft 487 kts 347°
2026-05-01 13:32 37.23457 50.33033 38089 ft 482 kts 347°
2026-05-01 13:33 37.40062 50.30452 38083 ft 482 kts 347°
2026-05-01 13:34 37.53393 50.28371 38077 ft 483 kts 347°
2026-05-01 13:35 37.63392 50.26807 38076 ft 483 kts 347°
2026-05-01 13:36 37.73384 50.25239 38079 ft 482 kts 347°
2026-05-01 13:36 37.83363 50.23668 38075 ft 481 kts 347°
2026-05-01 13:37 37.89961 50.22627 38072 ft 481 kts 347°
2026-05-01 13:37 37.96606 50.21577 38073 ft 481 kts 347°
2026-05-01 13:38 38.06565 50.19999 38078 ft 481 kts 347°
2026-05-01 13:39 38.13204 50.18945 38082 ft 481 kts 347°
2026-05-01 13:39 38.19838 50.17890 38083 ft 481 kts 347°
2026-05-01 13:40 38.26473 50.16833 38082 ft 480 kts 347°
2026-05-01 13:40 38.33107 50.15774 38079 ft 480 kts 347°
2026-05-01 13:41 38.39735 50.14714 38086 ft 480 kts 347°
2026-05-01 13:41 38.46361 50.13652 38079 ft 480 kts 347°
2026-05-01 13:42 38.52982 50.12589 38077 ft 479 kts 347°
2026-05-01 13:42 38.59601 50.11525 38081 ft 479 kts 347°
2026-05-01 13:43 38.66222 50.10458 38086 ft 479 kts 347°
2026-05-01 13:43 38.72842 50.09389 38082 ft 479 kts 347°
2026-05-01 13:44 38.79460 50.08319 38083 ft 479 kts 347°
2026-05-01 13:44 38.86035 50.07254 38081 ft 479 kts 347°
2026-05-01 13:45 38.92651 50.06180 38080 ft 479 kts 347°
2026-05-01 13:45 38.99267 50.05104 38082 ft 479 kts 347°
2026-05-01 13:46 39.05881 50.04026 38080 ft 479 kts 348°
2026-05-01 13:46 39.12490 50.02947 38082 ft 479 kts 348°
2026-05-01 13:47 39.19092 50.01867 38081 ft 478 kts 348°
2026-05-01 13:47 39.25696 50.00785 38081 ft 478 kts 348°
2026-05-01 13:48 39.32294 49.99702 38084 ft 478 kts 348°
2026-05-01 13:48 39.38886 49.98617 38076 ft 477 kts 348°
2026-05-01 13:49 39.45474 49.97531 38078 ft 477 kts 348°
2026-05-01 13:49 39.52057 49.96444 38078 ft 477 kts 348°
2026-05-01 13:50 39.58616 49.95359 38079 ft 477 kts 348°
2026-05-01 13:50 39.65249 49.94412 38079 ft 480 kts 352°
2026-05-01 13:51 39.71885 49.94736 38082 ft 483 kts
2026-05-01 13:51 39.78516 49.96187 38066 ft 480 kts
2026-05-01 13:52 39.85202 49.97073 38092 ft 488 kts
2026-05-01 13:52 39.91993 49.97804 38088 ft 491 kts
2026-05-01 13:53 39.98799 49.98638 38074 ft 490 kts
2026-05-01 13:53 40.08947 49.99996 38075 ft 487 kts
2026-05-01 13:54 40.15668 50.00894 38063 ft 485 kts
2026-05-01 13:54 40.22389 50.01785 38061 ft 484 kts
2026-05-01 13:55 40.29090 50.02672 38053 ft 484 kts
2026-05-01 13:55 40.35801 50.03565 38053 ft 485 kts
2026-05-01 13:56 40.42524 50.04461 38054 ft 486 kts
2026-05-01 13:56 40.49248 50.05449 38053 ft 488 kts
2026-05-01 13:57 40.54812 50.06795 38052 ft 490 kts
2026-05-01 13:57 40.62607 50.09063 38049 ft 490 kts
2026-05-01 13:58 40.69231 50.10928 38043 ft 490 kts
2026-05-01 13:58 40.75902 50.12713 38044 ft 489 kts
2026-05-01 13:59 40.82572 50.14474 38049 ft 489 kts
2026-05-01 13:59 40.89241 50.16249 38050 ft 489 kts
2026-05-01 14:00 40.94825 50.17745 38050 ft 489 kts
2026-05-01 14:00 41.01448 50.19524 38042 ft 489 kts
2026-05-01 14:01 41.08157 50.21329 38050 ft 488 kts
2026-05-01 14:01 41.14781 50.23025 38059 ft 487 kts
2026-05-01 14:02 41.21481 50.24304 38054 ft 486 kts
2026-05-01 14:02 41.28201 50.25440 38054 ft 486 kts
2026-05-01 14:03 41.34910 50.26619 38060 ft 487 kts
2026-05-01 14:03 41.41625 50.27857 38061 ft 487 kts
2026-05-01 14:04 41.48335 50.29112 38050 ft 487 kts
2026-05-01 14:04 41.55049 50.30366 38052 ft 487 kts
2026-05-01 14:05 41.61758 50.31616 38053 ft 487 kts
2026-05-01 14:05 41.68473 50.32869 38053 ft 487 kts
2026-05-01 14:06 41.75194 50.34126 38054 ft 487 kts
2026-05-01 14:06 41.81905 50.35385 38057 ft 487 kts
2026-05-01 14:07 41.88618 50.36647 38059 ft 487 kts
2026-05-01 14:08 41.98676 50.38540 38063 ft 487 kts
2026-05-01 14:08 42.05362 50.40052 38065 ft 488 kts
2026-05-01 14:09 42.11985 50.42150 38073 ft 489 kts 11°
2026-05-01 14:09 42.18590 50.44371 38075 ft 489 kts 10°
2026-05-01 14:10 42.25210 50.46517 38074 ft 489 kts
2026-05-01 14:10 42.31835 50.48592 38077 ft 489 kts
2026-05-01 14:11 42.38470 50.50653 38077 ft 489 kts
2026-05-01 14:11 42.48420 50.53762 38080 ft 489 kts
2026-05-01 14:12 42.55054 50.55849 38078 ft 489 kts
2026-05-01 14:12 42.61688 50.57941 38085 ft 489 kts
2026-05-01 14:13 42.67192 50.59679 38089 ft 489 kts
2026-05-01 14:13 42.74913 50.62123 38090 ft 490 kts
2026-05-01 14:14 42.81549 50.64228 38087 ft 490 kts
2026-05-01 14:14 42.88189 50.66339 38089 ft 490 kts
2026-05-01 14:15 42.94828 50.68454 38089 ft 490 kts
2026-05-01 14:15 43.01473 50.70576 38093 ft 490 kts
2026-05-01 14:16 43.08117 50.72703 38091 ft 490 kts
2026-05-01 14:16 43.14757 50.74833 38092 ft 490 kts
2026-05-01 14:17 43.21392 50.76966 38095 ft 490 kts
2026-05-01 14:17 43.28030 50.79105 38096 ft 490 kts
2026-05-01 14:18 43.34663 50.81247 38098 ft 490 kts
2026-05-01 14:18 43.40226 50.83047 38097 ft 490 kts
2026-05-01 14:19 43.47946 50.85551 38105 ft 490 kts
2026-05-01 14:19 43.54592 50.87711 38103 ft 491 kts
2026-05-01 14:20 43.64565 50.90963 38117 ft 491 kts
2026-05-01 14:21 43.71224 50.93029 38098 ft 490 kts
2026-05-01 14:21 43.77927 50.94649 38109 ft 489 kts
2026-05-01 14:22 43.87998 50.96893 38104 ft 489 kts
2026-05-01 14:22 43.94712 50.98471 38109 ft 489 kts
2026-05-01 14:23 44.01420 51.00095 38114 ft 489 kts
2026-05-01 14:23 44.08129 51.01732 38102 ft 489 kts
2026-05-01 14:24 44.14790 51.03355 38105 ft 489 kts
2026-05-01 14:24 44.21489 51.04986 38097 ft 489 kts
2026-05-01 14:25 44.28196 51.06620 38099 ft 489 kts
2026-05-01 14:25 44.34894 51.08257 38096 ft 489 kts
2026-05-01 14:26 44.44928 51.10716 38097 ft 488 kts
2026-05-01 14:27 44.51612 51.12359 38100 ft 487 kts
2026-05-01 14:27 44.58277 51.14001 38096 ft 487 kts
2026-05-01 14:28 44.68304 51.16480 38093 ft 487 kts
2026-05-01 14:28 44.74972 51.18133 38096 ft 487 kts
2026-05-01 14:29 44.81640 51.19789 38100 ft 487 kts
2026-05-01 14:30 44.94977 51.23114 38102 ft 487 kts
2026-05-01 14:31 45.04983 51.25619 38099 ft 487 kts
2026-05-01 14:31 45.11652 51.27294 38107 ft 487 kts
2026-05-01 14:32 45.18325 51.28973 38104 ft 487 kts
2026-05-01 14:32 45.25007 51.30659 38110 ft 488 kts
2026-05-01 14:33 45.31642 51.32337 38115 ft 488 kts
2026-05-01 14:33 45.38324 51.34031 38120 ft 488 kts
2026-05-01 14:34 45.45000 51.35728 38117 ft 488 kts
2026-05-01 14:34 45.51684 51.37431 38116 ft 488 kts
2026-05-01 14:35 45.58365 51.39137 38123 ft 488 kts
2026-05-01 14:35 45.65046 51.40847 38111 ft 488 kts
2026-05-01 14:36 45.71722 51.42560 38116 ft 487 kts
2026-05-01 14:36 45.78399 51.44277 38125 ft 487 kts
2026-05-01 14:37 45.85074 51.45998 38123 ft 488 kts
2026-05-01 14:37 45.91756 51.47725 38128 ft 488 kts
2026-05-01 14:38 45.98436 51.49456 38131 ft 488 kts
2026-05-01 14:38 46.05127 51.51194 38129 ft 488 kts
2026-05-01 14:39 46.11816 51.52936 38134 ft 489 kts
2026-05-01 14:39 46.18514 51.54684 38136 ft 489 kts
2026-05-01 14:40 46.25216 51.56437 38131 ft 490 kts
2026-05-01 14:40 46.31881 51.58186 38136 ft 490 kts
2026-05-01 14:41 46.38638 51.59963 38132 ft 491 kts
2026-05-01 14:41 46.45310 51.61722 38139 ft 491 kts
2026-05-01 14:42 46.52031 51.63499 38138 ft 491 kts
2026-05-01 14:42 46.58753 51.65280 38138 ft 491 kts
2026-05-01 14:43 46.65474 51.67065 38139 ft 491 kts
2026-05-01 14:43 46.72190 51.68854 38131 ft 491 kts
2026-05-01 14:44 46.78908 51.70647 38144 ft 491 kts
2026-05-01 14:44 46.88987 51.73347 38132 ft 491 kts
2026-05-01 14:45 46.99059 51.76055 38129 ft 491 kts
2026-05-01 14:46 47.05783 51.77868 38132 ft 491 kts
2026-05-01 14:46 47.14733 51.80096 38129 ft 486 kts 360°
2026-05-01 14:47 47.21410 51.80266 38147 ft 475 kts 350°
2026-05-01 14:48 47.31325 51.79244 38139 ft 482 kts 350°
2026-05-01 14:48 47.41406 51.78546 38134 ft 484 kts 351°
2026-05-01 14:49 47.54824 51.77804 38126 ft 481 kts 351°
2026-05-01 14:50 47.68150 51.76999 38130 ft 479 kts 351°
2026-05-01 14:51 47.78154 51.76393 38138 ft 480 kts 351°
2026-05-01 14:52 47.88166 51.75786 38146 ft 481 kts 351°
2026-05-01 14:53 47.98201 51.75160 38141 ft 482 kts 351°
2026-05-01 14:53 48.04903 51.74738 38144 ft 482 kts 351°
2026-05-01 14:54 48.11601 51.74317 38139 ft 482 kts 351°
2026-05-01 14:54 48.18306 51.73896 38147 ft 482 kts 351°
2026-05-01 14:55 48.25012 51.73473 38144 ft 482 kts 351°
2026-05-01 14:55 48.31710 51.73050 38135 ft 481 kts 351°
2026-05-01 14:56 48.38398 51.72626 38149 ft 481 kts 351°
2026-05-01 14:56 48.45080 51.72201 38142 ft 480 kts 351°
2026-05-01 14:57 48.51750 51.71775 38139 ft 480 kts 351°
2026-05-01 14:57 48.61759 51.71134 38143 ft 480 kts 351°
2026-05-01 14:58 48.68388 51.70708 38142 ft 480 kts 351°
2026-05-01 14:58 48.75058 51.70279 38140 ft 480 kts 351°
2026-05-01 14:59 48.81732 51.69848 38140 ft 480 kts 351°
2026-05-01 14:59 48.88410 51.69415 38134 ft 481 kts 351°
2026-05-01 15:00 48.98445 51.68764 38136 ft 482 kts 351°
2026-05-01 15:01 49.05142 51.68328 38135 ft 482 kts 351°
2026-05-01 15:01 49.11853 51.67889 38136 ft 483 kts 351°
2026-05-01 15:02 49.18567 51.67449 38125 ft 483 kts 351°
2026-05-01 15:02 49.25570 51.66990 38128 ft 484 kts 351°
2026-05-01 15:03 49.32292 51.66549 38134 ft 484 kts 351°
2026-05-01 15:03 49.39023 51.66104 38127 ft 484 kts 351°
2026-05-01 15:04 49.45757 51.65658 38126 ft 485 kts 351°
2026-05-01 15:04 49.52497 51.65210 38122 ft 485 kts 351°
2026-05-01 15:05 49.59258 51.64761 38120 ft 486 kts 351°
2026-05-01 15:05 49.65976 51.64313 38115 ft 486 kts 351°
2026-05-01 15:06 49.72742 51.63860 38116 ft 487 kts 351°
2026-05-01 15:06 49.79513 51.63406 38118 ft 487 kts 351°
2026-05-01 15:07 49.86303 51.62949 38118 ft 488 kts 352°
2026-05-01 15:07 49.93080 51.62492 38115 ft 488 kts 352°
2026-05-01 15:08 49.99867 51.62033 38107 ft 488 kts 352°
2026-05-01 15:08 50.06662 51.61573 38109 ft 488 kts 352°
2026-05-01 15:09 50.13442 51.61112 38110 ft 488 kts 352°
2026-05-01 15:09 50.20233 51.60649 38103 ft 488 kts 352°
2026-05-01 15:10 50.27024 51.60184 38100 ft 488 kts 352°
2026-05-01 15:10 50.37192 51.59487 38100 ft 487 kts 352°
2026-05-01 15:11 50.47340 51.58797 38096 ft 486 kts 352°
2026-05-01 15:12 50.54096 51.58367 38094 ft 485 kts 352°
2026-05-01 15:12 50.64164 51.57725 38094 ft 485 kts 352°
2026-05-01 15:14 50.81006 51.56628 38089 ft 484 kts 352°
2026-05-01 15:14 50.91104 51.55968 38083 ft 485 kts 352°
2026-05-01 15:15 51.04586 51.55081 38078 ft 485 kts 352°
2026-05-01 15:16 51.11238 51.54147 38086 ft 470 kts 337°
2026-05-01 15:16 51.16551 51.48738 38093 ft 449 kts 308°
2026-05-01 15:17 51.19826 51.40495 38094 ft 440 kts 292°
2026-05-01 15:18 51.24064 51.27500 38083 ft 444 kts 295°
2026-05-01 15:19 51.30206 51.10193 38084 ft 449 kts 295°
2026-05-01 15:19 51.34214 50.98502 38078 ft 447 kts 295°
2026-05-01 15:20 51.38632 50.85508 38082 ft 444 kts 295°
2026-05-01 15:21 51.41587 50.76795 38087 ft 443 kts 295°
2026-05-01 15:21 51.44518 50.68122 38069 ft 443 kts 295°
2026-05-01 15:22 51.48908 50.55067 38097 ft 443 kts 294°
2026-05-01 15:22 51.51586 50.46184 38085 ft 441 kts 291°
2026-05-01 15:23 51.54127 50.37189 38082 ft 442 kts 291°
2026-05-01 15:23 51.56656 50.28259 38086 ft 443 kts 291°
2026-05-01 15:24 51.59246 50.19198 38092 ft 443 kts 291°
2026-05-01 15:24 51.61826 50.10170 38089 ft 444 kts 291°
2026-05-01 15:25 51.64392 50.01144 38094 ft 444 kts 291°
2026-05-01 15:25 51.66956 49.92088 38093 ft 444 kts 291°
2026-05-01 15:26 51.69508 49.83032 38104 ft 444 kts 291°
2026-05-01 15:26 51.72055 49.73961 38100 ft 444 kts 291°
2026-05-01 15:27 51.74595 49.64876 38096 ft 444 kts 291°
2026-05-01 15:28 51.78374 49.51300 38102 ft 444 kts 291°
2026-05-01 15:28 51.80901 49.42177 38104 ft 444 kts 291°
2026-05-01 15:29 51.84677 49.28474 38101 ft 445 kts 290°
2026-05-01 15:30 51.89695 49.10139 38111 ft 446 kts 290°
2026-05-01 15:31 51.97184 48.82511 38113 ft 447 kts 290°
2026-05-01 15:32 52.02118 48.63994 38115 ft 447 kts 290°
2026-05-01 15:34 52.09453 48.36157 38110 ft 448 kts 290°